Terminal Aerodrome Forecast
Issued by NWS Wilmington, OH

Current Version | Previous Version | Graphics & Text | Print | Product List | Glossary On
Versions: 1 2 3 4 5 6 7 8 9 10 11 12 13 14 15 16 17 18 19 20 21 22 23 24
000
FTUS41 KILN 251500 AAB
TAFILN
TAF AMD
KILN 251541Z 2516/2612 21020G32KT P6SM VCSH SCT040 BKN080
     FM251800 22014G24KT P6SM VCSH BKN040
     FM260000 20009KT P6SM BKN080
     FM260800 19008KT P6SM BKN035=

USA.gov is the U.S. government's official web portal to all federal, state and local government web resources and services.